Fort Bragg, NC

6:00 PM EDT on March 26, 2017 (GMT -0400)
Simmons Army Air Field

Weather History for KFBG - April, 2014

Change the Weather History Date:

Wednesday, April 9, 2014

  Actual Average Record
Temperature  
Mean Temperature 60 °F -  
Max Temperature 71 °F 69 °F 91 °F (2001)
Min Temperature 50 °F 50 °F 33 °F (2007)
Degree Days  
Heating Degree Days 6    
Growing Degree Days 10 (Base 50)    
Moisture  
Dew Point 41 °F    
Average Humidity 55    
Maximum Humidity 82    
Minimum Humidity 28    
Precipitation  
Precipitation 0.01 in - - ()
Sea Level Pressure  
Sea Level Pressure 29.86 in    
Wind  
Wind Speed 7 mph (NNW)    
Max Wind Speed 17 mph    
Max Gust Speed 23 mph    
Visibility 10 miles    
Events Rain    
Averages and records for this station are not official NWS values.
T = Trace of Precipitation, MM = Missing Value Source: NWS Daily Summary

Daily Weather History Graph

Daily Weather History Graph

Search for Another Location

Airport or City:

Trip Planner

Search our weather history database for the weather conditions in past years. The results will help you decide how hot, cold, wet, or windy it might be!

Date:

Astronomy

Apr. 09, 2014 Rise Set
Actual Time 6:51 AM EDT 7:43 PM EDT
Civil Twilight 6:25 AM EDT 8:09 PM EDT
Nautical Twilight 5:55 AM EDT 8:40 PM EDT
Astronomical Twilight 5:23 AM EDT 9:11 PM EDT
Moon 2:41 PM EDT (4/9) 3:27 AM EDT (4/9)
Length of Visible Light 13h 43m
Length of Day
12h 52m
Waxing Gibbous, 71% of the Moon is Illuminated
Apr 9
Waxing Gibbous
Apr 15
Full
Apr 22
Last Quarter
Apr 29
New
May 6
First Quarter

Hourly Weather History & Observations

Time (EDT) Temp. Dew Point Humidity Pressure Visibility Wind Dir Wind Speed Gust Speed Precip Events Conditions
12:58 AM 56.1 °F 43.9 °F 64% 29.70 in 10.0 mi NNW 5.8 mph - N/A   Scattered Clouds
1:58 AM 54.0 °F 43.3 °F 67% 29.70 in 10.0 mi NNW 3.5 mph - N/A   Scattered Clouds
2:58 AM 53.1 °F 41.0 °F 64% 29.68 in 10.0 mi NNW 4.6 mph - N/A   Mostly Cloudy
3:58 AM 54.1 °F 39.9 °F 59% 29.68 in 10.0 mi NNW 17.3 mph 23.0 mph N/A   Mostly Cloudy
4:00 AM 53.6 °F 41.0 °F 62% 29.67 in 10.0 mi NNW 15.0 mph 23.0 mph N/A Rain Light Rain
4:58 AM 52.3 °F 43.5 °F 72% 29.71 in 10.0 mi NNW 9.2 mph 17.3 mph 0.00 in Rain Light Rain
5:06 AM 51.8 °F 44.6 °F 76% 29.71 in 10.0 mi NW 6.9 mph - N/A   Mostly Cloudy
5:34 AM 51.8 °F 44.6 °F 76% 29.73 in 10.0 mi NW 8.1 mph - N/A Rain Light Rain
5:58 AM 50.7 °F 44.8 °F 80% 29.75 in 10.0 mi NNW 6.9 mph - 0.00 in Rain Light Rain
6:06 AM 50.0 °F 44.6 °F 82% 29.74 in 10.0 mi North 4.6 mph - N/A   Clear
6:12 AM 50.0 °F 44.6 °F 82% 29.74 in 10.0 mi North 4.6 mph - N/A   Light Drizzle
6:35 AM 50.0 °F 44.6 °F 82% 29.76 in 10.0 mi NNW 8.1 mph - N/A   Mostly Cloudy
6:58 AM 51.1 °F 43.9 °F 76% 29.79 in 10.0 mi North 5.8 mph - 0.00 in   Mostly Cloudy
7:58 AM 51.4 °F 43.9 °F 75% 29.83 in 10.0 mi North 4.6 mph - N/A   Mostly Cloudy
8:58 AM 55.4 °F 44.4 °F 67% 29.85 in 10.0 mi NNE 5.8 mph - N/A   Clear
9:58 AM 59.4 °F 42.8 °F 54% 29.87 in 10.0 mi NNE 1.2 mph - N/A   Clear
10:58 AM 62.8 °F 41.2 °F 45% 29.90 in 10.0 mi Variable 4.6 mph - N/A   Clear
11:58 AM 64.6 °F 40.5 °F 41% 29.90 in 10.0 mi NW 8.1 mph - N/A   Partly Cloudy
12:57 PM 66.2 °F 39.2 °F 37% 29.89 in 10.0 mi NW 11.5 mph 18.4 mph N/A   Clear
12:58 PM 66.2 °F 38.8 °F 37% 29.90 in 10.0 mi NW 10.4 mph 18.4 mph N/A   Clear
1:58 PM 68.7 °F 38.7 °F 33% 29.90 in 10.0 mi Variable 6.9 mph - N/A   Partly Cloudy
2:58 PM 69.1 °F 35.6 °F 29% 29.90 in 10.0 mi North 6.9 mph 17.3 mph N/A   Partly Cloudy
3:58 PM 68.9 °F 34.7 °F 28% 29.91 in 10.0 mi WNW 8.1 mph - 0.01 in   Partly Cloudy
4:58 PM 67.8 °F 34.9 °F 30% 29.92 in 10.0 mi NW 11.5 mph - N/A   Mostly Cloudy
5:03 PM 68.0 °F 35.6 °F 30% 29.92 in 10.0 mi NW 11.5 mph - N/A Rain Light Rain
5:12 PM 68.0 °F 35.6 °F 30% 29.92 in 10.0 mi NW 11.5 mph - N/A   Scattered Clouds
5:58 PM 67.6 °F 38.3 °F 34% 29.96 in 10.0 mi WNW 12.7 mph - 0.00 in   Clear
6:58 PM 66.0 °F 38.7 °F 37% 29.98 in 10.0 mi NW 9.2 mph - N/A   Clear
7:58 PM 63.3 °F 39.6 °F 42% 30.01 in 10.0 mi NW 5.8 mph - N/A   Clear
8:58 PM 60.1 °F 40.5 °F 48% 30.04 in 10.0 mi West 5.8 mph - N/A   Clear
9:58 PM 54.7 °F 43.0 °F 65% 30.08 in 10.0 mi Calm Calm - N/A   Clear
10:58 PM 55.2 °F 42.1 °F 61% 30.09 in 10.0 mi SW 2.3 mph - N/A   Clear
11:58 PM 54.5 °F 41.2 °F 61% 30.11 in 10.0 mi Calm Calm - N/A   Clear